Weather History for Casper, WY

Change the Weather History Date:

Sunday, April 14, 2013

  Actual Average Record
Temperature  
Mean Temperature 32 °F 42 °F  
Max Temperature 42 °F 56 °F 77 °F (1985)
Min Temperature 21 °F 28 °F 0 °F (1945)
Degree Days  
Heating Degree Days 33 23  
Month to date heating degree days 394 342  
Since 1 July heating degree days 6405 6715  
Cooling Degree Days 0 0  
Month to date cooling degree days 0 0  
Year to date cooling degree days 0 0  
Moisture  
Dew Point 20 °F    
Average Humidity 59    
Maximum Humidity 92    
Minimum Humidity 25    
Precipitation  
Precipitation 0.13 in 0.04 in 0.43 in (2012)
Month to date precipitation 1.35 0.52  
Year to date precipitation 2.97 2.42  
Snow  
Snow 2.80 in 0.40 in - ()
Month to date snowfall 20.0 6.0  
Since 1 July snowfall 63.2 66.3  
Snow Depth 3.00 in    
Sea Level Pressure  
Sea Level Pressure 29.62 in    
Wind  
Wind Speed 15 mph (NW)    
Max Wind Speed 31 mph    
Max Gust Speed 39 mph    
Visibility 8 miles    
Events Fog , Snow    
T = Trace of Precipitation, MM = Missing Value Source: NWS Daily Summary

Daily Weather History Graph

Daily Weather History Graph

Search for Another Location

Airport:

Trip Planner

Search our weather history database for the weather conditions in past years. The results will help you decide how hot, cold, wet, or windy it might be!

Date:

Astronomy

Apr. 14, 2013 Rise Set
Actual Time 6:25 AM MDT 7:47 PM MDT
Civil Twilight 5:55 AM MDT 8:17 PM MDT
Nautical Twilight 5:20 AM MDT 8:52 PM MDT
Astronomical Twilight 4:43 AM MDT 9:30 PM MDT
Moon 9:00 AM MDT (4/14) No Moon Set
Length of Visible Light 14h 21m
Length of Day
13h 22m
Waxing Crescent, 17% of the Moon is Illuminated
Apr 14
Waxing Crescent
Apr 18
First Quarter
Apr 25
Full
May 2
Last Quarter
May 9
New

Hourly Weather History & Observations

Time (MDT) Temp. Windchill Dew Point Humidity Pressure Visibility Wind Dir Wind Speed Gust Speed Precip Events Conditions
12:53 AM 32.0 °F 25.6 °F 28.9 °F 88% 29.47 in 10.0 mi East 6.9 mph - N/A   Overcast
1:04 AM 32.0 °F 25.6 °F 28.4 °F 87% 29.51 in 10.0 mi NE 6.9 mph - N/A   Overcast
1:22 AM 32.0 °F 24.2 °F 26.6 °F 80% 29.51 in 10.0 mi NE 9.2 mph - N/A   Overcast
1:44 AM 32.0 °F 24.8 °F 26.6 °F 80% 29.51 in 10.0 mi NE 8.1 mph - N/A   Overcast
1:53 AM 30.9 °F 22.2 °F 28.0 °F 89% 29.48 in 10.0 mi NNE 10.4 mph - N/A   Overcast
2:34 AM 30.2 °F 25.4 °F 28.4 °F 93% 29.51 in 1.8 mi NW 4.6 mph - 0.01 in Snow Light Snow
2:46 AM 30.2 °F 25.4 °F 28.4 °F 93% 29.52 in 0.8 mi WNW 4.6 mph - 0.02 in Snow Light Snow
2:53 AM 30.0 °F - 28.0 °F 92% 29.49 in 0.5 mi Calm Calm - 0.05 in Fog , Snow Snow
3:01 AM 30.2 °F 26.7 °F 28.4 °F 93% 29.51 in 0.2 mi NE 3.5 mph - 0.02 in Fog , Snow Snow
3:16 AM 30.2 °F 26.7 °F 28.4 °F 93% 29.51 in 0.8 mi NW 3.5 mph - 0.04 in Snow Light Snow
3:26 AM 26.6 °F 16.2 °F 24.8 °F 93% 29.52 in 0.5 mi NW 11.5 mph - 0.06 in Fog , Snow Snow
3:40 AM 26.6 °F 20.0 °F 24.8 °F 93% 29.52 in 1.0 mi West 5.8 mph - 0.08 in Snow Light Snow
3:45 AM 26.6 °F 21.2 °F 24.8 °F 93% 29.52 in 3.0 mi West 4.6 mph - 0.08 in Snow Light Snow
3:53 AM 27.0 °F 20.5 °F 25.0 °F 92% 29.52 in 9.0 mi WSW 5.8 mph - 0.08 in   Overcast
4:53 AM 26.1 °F 14.5 °F 18.0 °F 71% 29.55 in 10.0 mi West 13.8 mph - N/A   Overcast
5:53 AM 27.0 °F 16.1 °F 19.9 °F 75% 29.56 in 7.0 mi WNW 12.7 mph - 0.00 in Snow Light Snow
6:16 AM 26.6 °F 16.8 °F 19.4 °F 74% 29.57 in 3.0 mi NNW 10.4 mph 19.6 mph 0.00 in Snow Light Snow
6:25 AM 26.6 °F 18.2 °F 19.4 °F 74% 29.57 in 7.0 mi NNW 8.1 mph - 0.00 in   Overcast
6:53 AM 25.0 °F 20.7 °F 19.0 °F 78% 29.59 in 10.0 mi SW 3.5 mph - 0.00 in   Overcast
7:53 AM 27.0 °F 17.3 °F 19.0 °F 72% 29.61 in 10.0 mi West 10.4 mph - N/A   Overcast
8:53 AM 28.0 °F 16.1 °F 19.0 °F 69% 29.63 in 10.0 mi West 16.1 mph - N/A   Scattered Clouds
9:53 AM 30.0 °F 18.3 °F 17.1 °F 59% 29.65 in 10.0 mi West 17.3 mph - N/A   Mostly Cloudy
10:53 AM 32.0 °F 19.2 °F 18.0 °F 56% 29.66 in 10.0 mi West 23.0 mph 27.6 mph N/A   Partly Cloudy
11:53 AM 34.0 °F 21.0 °F 18.0 °F 52% 29.66 in 10.0 mi West 26.5 mph 32.2 mph N/A   Mostly Cloudy
12:53 PM 35.1 °F 22.5 °F 15.1 °F 44% 29.65 in 10.0 mi West 26.5 mph 33.4 mph N/A   Mostly Cloudy
1:53 PM 35.6 °F 24.2 °F 10.4 °F 35% 29.62 in 10.0 mi West 21.9 mph 38.0 mph N/A   Partly Cloudy
2:53 PM 39.9 °F 29.2 °F 10.0 °F 29% 29.65 in 10.0 mi WNW 25.3 mph 34.5 mph N/A   Scattered Clouds
3:53 PM 39.9 °F 29.7 °F 8.1 °F 27% 29.65 in 10.0 mi WNW 23.0 mph 35.7 mph N/A   Scattered Clouds
4:53 PM 41.0 °F 31.1 °F 9.0 °F 27% 29.65 in 10.0 mi WNW 23.0 mph 31.1 mph N/A   Clear
5:53 PM 37.9 °F 29.6 °F 12.0 °F 35% 29.69 in 10.0 mi NW 13.8 mph 35.7 mph N/A   Scattered Clouds
6:53 PM 35.1 °F 24.1 °F 16.0 °F 46% 29.74 in 10.0 mi NNW 19.6 mph 26.5 mph N/A   Scattered Clouds
7:53 PM 30.9 °F 19.8 °F 19.0 °F 61% 29.78 in 10.0 mi NNW 16.1 mph - N/A   Clear
8:53 PM 27.0 °F 17.3 °F 21.0 °F 78% 29.84 in 10.0 mi NNE 10.4 mph - N/A   Clear
9:53 PM 25.0 °F 19.3 °F 19.0 °F 78% 29.88 in 10.0 mi NE 4.6 mph - N/A   Partly Cloudy
10:40 PM 24.8 °F 16.9 °F 19.4 °F 80% 29.80 in 10.0 mi NE 6.9 mph - N/A   Mostly Cloudy
10:53 PM 24.1 °F 14.4 °F 19.0 °F 81% 29.88 in 10.0 mi ENE 9.2 mph - N/A   Mostly Cloudy
11:53 PM 23.0 °F 10.6 °F 17.1 °F 78% 29.85 in 10.0 mi NE 13.8 mph - N/A   Overcast